Tacoma Narrows, WA
on Wednesday, December 19, 2012

Wednesday
Previous Day Next Day
Daily Summary
 ActualAverageRecord
Temperature
Mean Temperature °F °F  
Max Temperature 46°F 43°F 48°F (2002)
Min Temperature 35°F 36°F 21°F (2008)
Degree Days
Heating Degree Days 24    
Moisture
Dew Point 34°F   
Average Humidity 80    
Maximum Humidity 93    
Minimum Humidity 63    
Precipitation
Precipitation 0.56 in in in ()
Wind
Wind Speed 9 mph   
Max Wind Speed 23 mph   
Max Gust Speed 32 mph   
Visibility 10 miles   
Events Rain , Snow   
Averages and records for this station are not official NWS values.
Key: T is trace of precipitation, MM is missing value
Source: NWS Daily Summary
Seasonal Weather Averages
Time(PST)TemperatureDew PointHumidity Pressure Visibility Wind DirectionWind SpeedGust SpeedPrecipitationEvents Conditions
12:53 AM 37.0°F 30.0°F 76% 29.95 in 10.0 miles SSE 8.1 mph - N/A   Overcast
1:53 AM 36.0°F 28.9°F 76% 29.93 in 10.0 miles SSE 6.9 mph - N/A   Overcast
2:21 AM 37.4°F 30.2°F 75% 29.90 in 10.0 miles SSE 9.2 mph - 0.00 in   Overcast
2:53 AM 36.0°F 30.0°F 79% 29.89 in 10.0 miles SSE 6.9 mph - 0.00 in   Overcast
3:53 AM 35.1°F 30.9°F 85% 29.84 in 8.0 miles SSE 6.9 mph - 0.00 in Snow Light Snow
4:06 AM 35.6°F 30.2°F 81% 29.82 in 10.0 miles SSE 8.1 mph - 0.00 in Rain Light Freezing Rain
4:19 AM 35.6°F 30.2°F 81% 29.81 in 10.0 miles SSE 8.1 mph - 0.00 in Rain Light Freezing Rain
4:34 AM 35.6°F 32.0°F 87% 29.81 in 10.0 miles SSE 5.8 mph - 0.00 in   Overcast
4:53 AM 36.0°F 32.0°F 86% 29.82 in 10.0 miles South 5.8 mph - 0.00 in   Overcast
5:03 AM 35.6°F 32.0°F 87% 29.80 in 10.0 miles South 8.1 mph - 0.00 in   Overcast
5:12 AM 35.6°F 32.0°F 87% 29.79 in 10.0 miles Variable 3.5 mph - 0.00 in   Overcast
5:53 AM 37.0°F 32.0°F 82% 29.78 in 10.0 miles Calm Calm - 0.00 in   Overcast
6:53 AM 37.9°F 33.1°F 83% 29.77 in 10.0 miles Calm Calm - 0.00 in   Overcast
7:53 AM 39.9°F 33.1°F 77% 29.74 in 10.0 miles SSE 9.2 mph - 0.00 in Rain Light Rain
8:53 AM 42.1°F 33.1°F 70% 29.72 in 10.0 miles SSE 9.2 mph - 0.01 in   Overcast
9:53 AM 44.1°F 33.1°F 65% 29.71 in 10.0 miles South 11.5 mph 20.7 mph N/A   Overcast
10:53 AM 45.0°F 34.0°F 65% 29.69 in 10.0 miles SSE 13.8 mph 24.2 mph N/A   Overcast
11:53 AM 45.0°F 33.1°F 63% 29.66 in 10.0 miles South 17.3 mph 28.8 mph N/A   Overcast
12:53 PM 46.0°F 34.0°F 63% 29.63 in 10.0 miles South 16.1 mph 31.1 mph 0.00 in Rain Light Rain
1:53 PM 45.0°F 36.0°F 71% 29.62 in 10.0 miles South 17.3 mph 26.5 mph 0.02 in Rain Light Rain
2:53 PM 43.0°F 37.0°F 80% 29.65 in 3.0 miles SSW 12.7 mph 23.0 mph 0.13 in Rain Rain
3:53 PM 43.0°F 37.9°F 82% 29.65 in 8.0 miles South 18.4 mph - 0.08 in Rain Light Rain
4:53 PM 41.0°F 37.0°F 86% 29.65 in 7.0 miles South 23.0 mph 32.2 mph 0.08 in Rain Light Rain
5:03 PM 41.0°F 37.4°F 87% 29.64 in 10.0 miles South 20.7 mph 31.1 mph 0.00 in Rain Light Rain
5:53 PM 42.1°F 37.0°F 82% 29.66 in 10.0 miles South 18.4 mph 29.9 mph 0.03 in Rain Light Rain
6:53 PM 41.0°F 36.0°F 82% 29.65 in 10.0 miles South 15.0 mph 25.3 mph 0.05 in Rain Light Rain
7:53 PM 42.1°F 37.0°F 82% 29.64 in 10.0 miles SSE 12.7 mph 27.6 mph 0.02 in Rain Light Rain
8:53 PM 42.1°F 37.0°F 82% 29.63 in 10.0 miles SSE 9.2 mph 17.3 mph 0.05 in Rain Light Rain
9:53 PM 43.0°F 37.9°F 82% 29.61 in 10.0 miles South 10.4 mph - 0.03 in Rain Light Rain
10:53 PM 42.1°F 39.0°F 89% 29.59 in 10.0 miles Calm Calm - 0.04 in   Overcast
11:53 PM 41.0°F 39.0°F 93% 29.55 in 10.0 miles NNE 3.5 mph - 0.02 in Rain Light Rain
Moon Phase
Dec. 19 Dec. 20 Dec. 28 Jan. 04 Jan. 11
Sunrise:07:53 AM (PST) Moon Rise:11:38 AM (PST)
Sunset:04:22 PM (PST) Moon Set:No Moon Set/

Copyright © 2014 The Weather Underground, Inc.